Home   Weather   Nizhnevartovsk   Past weeks
Flag for Russia

Past Weather in Nizhnevartovsk, Russia — Yesterday and Last 2 Weeks

Now
59 °F

Sunny.


Feels Like: 58 °F
Forecast: 62 / 51 °F
Wind: 8 mph from South

Location: Nizhnevartovsk

Current Time: Jun 20, 2019 at 8:46:35 am

Latest Report: Jun 20, 2019 at 8:00 am


Visibility: 10 mi

Pressure: 29.83 "Hg

Humidity: 55%

Dew Point: 43 °F

Location of NizhnevartovskLocation

Past Weather in Nizhnevartovsk — Graph

°F

Nizhnevartovsk Temperature Yesterday

Maximum temperature yesterday: 59 °F (at 11:00 am)
Minimum temperature yesterday: 41 °F (at 11:00 pm)
Average temperature yesterday: 53 °F

High & Low Weather Summary for the Past Weeks

 TemperatureHumidityPressure
High77 °F (Jun 6, 11:30 am)100% (Jun 7, 11:00 pm)29.92 "Hg (Jun 7, 11:00 pm)
Low37 °F (Jun 11, 2:00 am)25% (Jun 5, 12:30 pm)29.21 "Hg (Jun 13, 6:00 am)
Average54 °F70%29.62 "Hg
* Reported Jun 5 7:00 am — Jun 20 7:30 am, Nizhnevartovsk. Weather by CustomWeather, © 2019

Note: Actual official high and low records may vary slightly from our data, if they occured in-between our weather recording intervals... More about our weather records

Advertising

Nizhnevartovsk Weather History for the Previous 24 Hours

Scroll right to see more
 ConditionsComfort  
Time TempWeatherWind HumidityBarometerVisibility
7:30 am
Thu, Jun 20
57 °FSunny.8 mph59%29.80 "Hg10 mi
7:00 am55 °FSunny.8 mph63%29.83 "Hg10 mi
6:30 am54 °FSunny.8 mph63%29.80 "Hg10 mi
6:00 am54 °FSunny.8 mph63%29.83 "Hg10 mi
5:30 am54 °FSunny.8 mph63%29.83 "Hg10 mi
5:00 am52 °FSunny.6 mph72%29.83 "Hg10 mi
4:30 am50 °FSunny.3 mph71%29.83 "Hg10 mi
4:00 am48 °FSunny.6 mph82%29.80 "Hg10 mi
3:30 am45 °FSunny.No wind100%29.83 "Hg10 mi
3:00 am46 °FSunny.No wind87%29.80 "Hg10 mi
2:30 am45 °FSunny.3 mph93%29.80 "Hg10 mi
2:00 am43 °FClear.1 mph100%29.80 "Hg10 mi
1:30 am39 °FLight fog.No wind100%29.80 "HgN/A
1:00 am41 °FLight fog.1 mph93%29.80 "HgN/A
12:30 am41 °FLight fog.No wind100%29.80 "HgN/A
12:00 am41 °FClear.No wind100%29.77 "Hg10 mi
11:30 pm
Wed, Jun 19
41 °FClear.No wind100%29.77 "Hg10 mi
11:00 pm41 °FClear.No wind100%29.77 "Hg10 mi
10:30 pm43 °FClear.No wind93%29.77 "Hg10 mi
10:00 pm45 °FClear.1 mph93%29.77 "Hg10 mi
9:30 pm45 °FSunny.1 mph87%29.74 "Hg10 mi
9:00 pm50 °FSunny.1 mph71%29.74 "Hg10 mi
8:30 pm54 °FSunny.1 mph58%29.74 "Hg10 mi
8:00 pm55 °FPassing clouds.3 mph55%29.74 "HgN/A
7:30 pm57 °FPassing clouds.3 mph51%29.71 "HgN/A
7:00 pm57 °FPassing clouds.6 mph48%29.71 "HgN/A
6:30 pm57 °FPassing clouds.8 mph51%29.71 "HgN/A
6:00 pm55 °FPartly sunny.3 mph59%29.68 "HgN/A
5:30 pm57 °FPartly sunny.8 mph51%29.68 "HgN/A
5:00 pm57 °FPassing clouds.8 mph51%29.68 "HgN/A
4:30 pm55 °FScattered clouds.8 mph55%29.65 "HgN/A
4:00 pm55 °FScattered clouds.10 mph55%29.65 "HgN/A
3:30 pm57 °FScattered clouds.8 mph55%29.65 "HgN/A
3:00 pm55 °FPassing clouds.10 mph51%29.62 "HgN/A
2:30 pm57 °FPassing clouds.10 mph55%29.62 "HgN/A
2:00 pm57 °FPassing clouds.10 mph55%29.59 "HgN/A
1:30 pm59 °FPassing clouds.13 mph51%29.59 "HgN/A
1:00 pm59 °FPassing clouds.15 mph51%29.56 "HgN/A
12:30 pm57 °FSunny.13 mph51%29.56 "Hg10 mi
12:00 pm59 °FSunny.10 mph48%29.56 "Hg10 mi
11:30 am59 °FSunny.15 mph51%29.53 "Hg10 mi
11:00 am59 °FScattered clouds.13 mph51%29.53 "HgN/A
10:30 am57 °FScattered clouds.13 mph55%29.53 "HgN/A
10:00 am55 °FPartly sunny.13 mph63%29.53 "HgN/A
9:30 am57 °FScattered clouds.10 mph59%29.50 "HgN/A
9:00 am55 °FSunny.13 mph59%29.50 "Hg10 mi
8:30 am55 °FSunny.10 mph63%29.50 "Hg10 mi
8:00 am55 °FSunny.10 mph72%29.50 "Hg10 mi
Weather by CustomWeather, © 2019

See weather overview